Fairbanks, AK

1:11 PM AKDT on May 29, 2017 (GMT -0800)
Fairbanks International

Weather History for PAFA - July, 2013

Change the Weather History Date:

Wednesday, July 24, 2013

  Actual Average Record
Temperature  
Mean Temperature 67 °F 62 °F  
Max Temperature 75 °F 71 °F 89 °F (1968)
Min Temperature 58 °F 52 °F 35 °F (1917)
Degree Days  
Heating Degree Days 0 4  
Month to date heating degree days 67 77  
Since 1 June heating degree days 138 237  
Since 1 July heating degree days 67 77  
Cooling Degree Days 2 1  
Month to date cooling degree days 31 28  
Year to date cooling degree days 179 52  
Since 1 June cooling degree days 166 51  
Growing Degree Days 16 (Base 50)    
Moisture  
Dew Point 55 °F    
Average Humidity 66    
Maximum Humidity 87    
Minimum Humidity 45    
Precipitation  
Precipitation 0.01 in 0.08 in 1.27 in (1967)
Month to date precipitation 1.01 1.65  
Year to date precipitation 3.78 5.18  
Snow  
Snow 0.00 in 0.00 in 0.00 in (2002)
Month to date snowfall 0.0 0.0  
Since 1 June snowfall 0.0 0.0  
Since 1 July snowfall 0.0 0.0  
Snow Depth 0.00 in    
Sea Level Pressure  
Sea Level Pressure 30.00 in    
Wind  
Wind Speed 4 mph (WSW)    
Max Wind Speed 16 mph    
Max Gust Speed 21 mph    
Visibility 10 miles    
Events Rain    
T = Trace of Precipitation, MM = Missing Value Source: NWS Daily Summary

Daily Weather History Graph

Daily Weather History Graph

Search for Another Location

Airport or City:

Trip Planner

Search our weather history database for the weather conditions in past years. The results will help you decide how hot, cold, wet, or windy it might be!

Date:

Astronomy

Jul. 24, 2013 Rise Set
Actual Time 4:25 AM AKDT 11:27 PM AKDT
Civil Twilight 2:30 AM AKDT 1:25 AM AKDT
Nautical Twilight Sun does not set Sun does not set
Astronomical Twilight Sun does not set Sun does not set
Moon 10:49 PM AKDT (7/24) 8:32 AM AKDT (7/24)
Length of Visible Light 22h 55m
Length of Day
19h 02m
Waning Gibbous, 94% of the Moon is Illuminated
Jul 24
Waning Gibbous
Jul 29
Last Quarter
Aug 6
New
Aug 14
First Quarter
Aug 20
Full

Hourly Weather History & Observations

Time (AKDT) Temp. Dew Point Humidity Pressure Visibility Wind Dir Wind Speed Gust Speed Precip Events Conditions
12:53 AM 63.0 °F 57.0 °F 81% 30.02 in 10.0 mi Calm Calm - N/A   Scattered Clouds
1:53 AM 62.1 °F 55.9 °F 80% 30.02 in 10.0 mi Calm Calm - N/A   Mostly Cloudy
2:53 AM 60.1 °F 55.9 °F 86% 30.02 in 10.0 mi Calm Calm - N/A   Mostly Cloudy
3:53 AM 57.9 °F 54.0 °F 87% 30.03 in 10.0 mi Calm Calm - N/A   Mostly Cloudy
4:53 AM 59.0 °F 55.0 °F 87% 30.03 in 10.0 mi SSE 3.5 mph - N/A   Mostly Cloudy
5:53 AM 59.0 °F 54.0 °F 83% 30.03 in 10.0 mi SSW 3.5 mph - N/A   Mostly Cloudy
6:53 AM 61.0 °F 55.0 °F 81% 30.02 in 10.0 mi South 5.8 mph - N/A   Mostly Cloudy
7:53 AM 63.0 °F 55.0 °F 75% 30.02 in 10.0 mi SSW 5.8 mph - N/A   Mostly Cloudy
8:53 AM 64.9 °F 55.0 °F 70% 30.01 in 10.0 mi South 5.8 mph - N/A   Mostly Cloudy
9:53 AM 69.1 °F 54.0 °F 58% 30.01 in 10.0 mi Variable 5.8 mph - N/A   Scattered Clouds
10:53 AM 72.0 °F 54.0 °F 53% 30.01 in 10.0 mi WSW 9.2 mph 17.3 mph N/A   Scattered Clouds
11:53 AM 71.1 °F 55.0 °F 57% 30.01 in 10.0 mi WSW 8.1 mph - N/A   Mostly Cloudy
12:53 PM 71.1 °F 54.0 °F 55% 30.01 in 10.0 mi West 10.4 mph - N/A   Mostly Cloudy
1:53 PM 70.0 °F 54.0 °F 57% 30.01 in 10.0 mi West 10.4 mph - N/A   Mostly Cloudy
2:53 PM 71.1 °F 55.0 °F 57% 29.99 in 10.0 mi WSW 8.1 mph - N/A   Mostly Cloudy
3:53 PM 73.0 °F 55.9 °F 55% 29.97 in 10.0 mi Variable 5.8 mph - N/A   Mostly Cloudy
4:53 PM 71.1 °F 55.9 °F 59% 29.96 in 10.0 mi West 16.1 mph 20.7 mph 0.00 in Rain Light Rain
5:53 PM 71.1 °F 57.9 °F 63% 29.96 in 10.0 mi SW 6.9 mph - 0.00 in   Mostly Cloudy
6:53 PM 70.0 °F 55.0 °F 59% 29.96 in 10.0 mi WSW 10.4 mph - N/A   Mostly Cloudy
7:53 PM 70.0 °F 55.0 °F 59% 29.96 in 10.0 mi West 9.2 mph - N/A   Mostly Cloudy
8:53 PM 70.0 °F 55.0 °F 59% 29.97 in 10.0 mi West 8.1 mph - N/A   Mostly Cloudy
9:53 PM 69.1 °F 55.0 °F 61% 29.96 in 10.0 mi West 10.4 mph - N/A   Mostly Cloudy
10:53 PM 68.0 °F 55.0 °F 63% 29.96 in 10.0 mi West 8.1 mph - N/A   Mostly Cloudy
11:53 PM 66.9 °F 55.9 °F 68% 29.97 in 10.0 mi West 8.1 mph - N/A   Mostly Cloudy